CZ-6A DEB

Satellite information

Favourite Embed

Satellite Type and Status

DEBRISIN ORBIT

Key statistics

Satellite CZ-6A DEB at a glance.

Uptime

912

Days in orbit

Revolutions

≈ 14.1

Per day

Orbit

SSO

Sun Synchronous Orbit

Inclination

98.8

Latest

Satellite identification and parameters

Extended collection of information and parameters for CZ-6A DEB.

Object identification

Identified? True

Debris? True

Object name: CZ-6A DEB

International designator: 2022-151AHE

Object number (NORAD): 56678

Object ID (CCSDS): 56678

Country: PEOPLES REPUBLIC OF CHINA (PRC)

Current information (Y/N): Y

RCS size: SMALL

Orbital parameters

Period: 102.047 minutes

Inclination: 98.821 deg

SMA: 7233.708 km

Apoapsis: 901.627 km

Periapsis: 809.519 km

RAAN: 124.0074 deg

Eccentricy: 0.0063666

Argument of periapsis: 74.2475 deg

Mean anomaly: 286.5706 deg

Mean motion: 14.11111422 rev/day

Mean motion (dot): 0.00002897 rev/day2

B* drag term: 0.0016015 1/REarth

Two-line elements (TLE)

Creation date: May 4, 2025, 10:36 p.m.

Reference frame: TEME

Reference center: EARTH

Epoch: May 4, 2025, 8:32 p.m. UTC

TLE line 0: 0 CZ-6A DEB

TLE line 1: 1 56678U 22151AHE 25124.85613691 .00002897 00000-0 16015-2 0 9997

TLE line 2: 2 56678 98.8210 124.0074 0063666 74.2475 286.5706 14.11111422104261

Live tracking on map

Real-time ground track for satellite CZ-6A DEB.

In-orbit conjunctions

A list of the most updated potential collisions computed for object CZ-6A DEB.

Target Orbit TCA Probability of collision Miss distance Type
METEOR 1-17 DEB LEO 2024-11-16 13:18:51 0.001207225 167.0 (m) DEBRIS

Associated space launch

Chinese satellite reported for atmospheric/ocean/environmental/spatial parameter research purposes, details TBD.

CZ-6A DEB was lifted into orbit during the mission ‘Long March 6A | Yunhai 3’, on board a Long March 6A space rocket.

The launch took place on Nov. 11, 2022, 10:52 p.m. from Launch Complex 9A.

For more information about the launch, click the button.

Launch to space Long March 6A | Yunhai 3
Long March 6A | Yunhai 3

Agency: N/A

Status: Launch Successful

Launch date: Nov. 11, 2022, 10:52 p.m. UTC

Rocket: Long March 6A

Launch pad: Launch Complex 9A

Location: Taiyuan Satellite Launch Center, People's Republic of China

...

Latest news about this satellite

There are no fresh news available about this satellite. Check back as we update our databases every day.


Newsletter sign-up

Weekly statistics, charts and insights to help you stay on top of the space industry.